| time (UTC) | temp F | wind direction | speed knots | gust knots | rain 1hr in | rain 24hr in | rain mn in | humidity % | barometer mb |
| 20260505123115 | 53 | 105 | 0.0 | 0.0 | 0.00 | 0.00 | 0.00 | 82 | 1020.3 |
| 20260505121502 | 54 | 105 | 0.0 | 0.0 | 0.00 | 0.00 | 0.00 | 81 | 1020.5 |
| 20260505114501 | 54 | 105 | 0.0 | 1.7 | 0.00 | 0.00 | 0.00 | 78 | 1020.4 |
| 20260505113105 | 55 | 105 | 0.9 | 2.6 | 0.00 | 0.00 | 0.00 | 76 | 1020.5 |
| 20260505111502 | 55 | 112 | 0.9 | 4.3 | 0.00 | 0.00 | 0.00 | 76 | 1020.3 |
| 20260505101602 | 55 | 90 | 1.7 | 4.3 | 0.00 | 0.00 | 0.00 | 75 | 1020.0 |
| 20260505100002 | 55 | 90 | 1.7 | 4.3 | 0.00 | 0.00 | 0.00 | 75 | 1019.9 |
| 20260505094603 | 56 | 150 | 2.6 | 7.8 | 0.00 | 0.00 | 0.00 | 75 | 1019.8 |
| 20260505093002 | 56 | 119 | 4.3 | 7.8 | 0.00 | 0.00 | 0.00 | 75 | 1019.6 |
| 20260505091603 | 55 | 151 | 4.3 | 7.8 | 0.00 | 0.00 | 0.00 | 75 | 1019.4 |
| 20260505090001 | 56 | 162 | 4.3 | 7.8 | 0.00 | 0.00 | 0.00 | 74 | 1019.1 |
| 20260505084601 | 56 | 142 | 5.2 | 8.7 | 0.00 | 0.00 | 0.00 | 73 | 1018.9 |
| 20260505083005 | 57 | 156 | 6.1 | 10.4 | 0.00 | 0.00 | 0.00 | 74 | 1018.5 |
| 20260505081602 | 57 | 142 | 7.0 | 9.6 | 0.00 | 0.00 | 0.00 | 74 | 1018.3 |
| 20260505080103 | 57 | 125 | 3.5 | 8.7 | 0.00 | 0.00 | 0.00 | 74 | 1017.7 |
| 20260505074501 | 58 | 156 | 3.5 | 7.0 | 0.00 | 0.00 | 0.00 | 72 | 1017.4 |
| 20260505073107 | 59 | 123 | 1.7 | 4.3 | 0.00 | 0.00 | 0.00 | 69 | 1017.1 |
| 20260505071509 | 61 | 125 | 0.0 | 2.6 | 0.00 | 0.00 | 0.00 | 67 | 1016.9 |
| 20260505070002 | 61 | 123 | 2.6 | 3.5 | 0.00 | 0.00 | 0.00 | 66 | 1016.7 |
| 20260505064605 | 62 | 277 | 1.7 | 5.2 | 0.00 | 0.00 | 0.00 | 65 | 1016.4 |
| 20260505063004 | 62 | 140 | 3.5 | 7.8 | 0.00 | 0.00 | 0.00 | 63 | 1016.2 |
| 20260505061609 | 63 | 163 | 4.3 | 7.8 | 0.00 | 0.00 | 0.00 | 63 | 1016.0 |
| 20260505060002 | 64 | 131 | 3.5 | 7.8 | 0.00 | 0.00 | 0.00 | 61 | 1015.9 |
| 20260505054502 | 64 | 140 | 5.2 | 10.4 | 0.00 | 0.00 | 0.00 | 60 | 1015.7 |
| 20260505053113 | 65 | 156 | 5.2 | 8.7 | 0.00 | 0.00 | 0.00 | 59 | 1015.5 |
| 20260505051501 | 66 | 168 | 6.1 | 8.7 | 0.00 | 0.00 | 0.00 | 57 | 1015.4 |
| 20260505041615 | 67 | 101 | 3.5 | 7.8 | 0.00 | 0.00 | 0.00 | 51 | 1014.9 |
| 20260505040002 | 68 | 75 | 0.0 | 1.7 | 0.00 | 0.00 | 0.00 | 50 | 1014.7 |
| 20260505034604 | 68 | 5 | 0.0 | 1.7 | 0.00 | 0.00 | 0.00 | 48 | 1014.6 |
| 20260505031608 | 68 | 292 | 0.0 | 7.0 | 0.00 | 0.00 | 0.00 | 52 | 1014.5 |
| 20260505030002 | 67 | 159 | 4.3 | 6.1 | 0.00 | 0.00 | 0.00 | 50 | 1014.5 |
| 20260505024601 | 68 | 174 | 2.6 | 7.0 | 0.00 | 0.00 | 0.00 | 49 | 1014.5 |
| 20260505023001 | 68 | 209 | 5.2 | 12.2 | 0.00 | 0.00 | 0.00 | 49 | 1014.5 |
| 20260505021602 | 68 | 211 | 0.9 | 7.8 | 0.00 | 0.00 | 0.00 | 47 | 1014.8 |
| 20260505020002 | 68 | 290 | 3.5 | 8.7 | 0.00 | 0.00 | 0.00 | 47 | 1014.8 |
| 20260505014603 | 69 | 311 | 6.1 | 13.0 | 0.00 | 0.00 | 0.00 | 47 | 1015.0 |
| 20260505013003 | 69 | 308 | 3.5 | 6.1 | 0.00 | 0.00 | 0.00 | 47 | 1015.0 |
| 20260505011602 | 69 | 80 | 1.7 | 9.6 | 0.00 | 0.00 | 0.00 | 48 | 1015.1 |
| 20260505010002 | 68 | 4 | 5.2 | 7.8 | 0.00 | 0.00 | 0.00 | 53 | 1015.1 |
| 20260505004602 | 67 | 332 | 6.1 | 10.4 | 0.00 | 0.00 | 0.00 | 55 | 1015.0 |
| 20260505003001 | 66 | 331 | 9.6 | 13.9 | 0.00 | 0.00 | 0.00 | 56 | 1015.0 |
| 20260505001604 | 65 | 352 | 8.7 | 14.8 | 0.00 | 0.00 | 0.00 | 56 | 1015.0 |
| 20260505000002 | 64 | 330 | 8.7 | 14.8 | 0.00 | 0.00 | 0.00 | 59 | 1014.9 |
| 20260504234639 | 63 | 333 | 7.0 | 13.9 | 0.00 | 0.00 | 0.00 | 61 | 1015.0 |
| 20260504233001 | 62 | 325 | 7.8 | 14.8 | 0.00 | 0.00 | 0.00 | 62 | 1015.0 |
| 20260504231605 | 61 | 340 | 7.8 | 12.2 | 0.00 | 0.00 | 0.00 | 67 | 1015.0 |
| 20260504224501 | 54 | 316 | 3.5 | 7.8 | 0.00 | 0.00 | 0.00 | 83 | 1015.0 |
| 20260504223102 | 51 | 352 | 1.7 | 5.2 | 0.00 | 0.00 | 0.00 | 89 | 1015.0 |
| 20260504221501 | 47 | 9 | 0.0 | 1.7 | 0.00 | 0.00 | 0.00 | 90 | 1014.9 |
| 20260504214501 | 45 | 9 | 0.0 | 1.7 | 0.00 | 0.00 | 0.00 | 86 | 1014.5 |
| 20260504213102 | 46 | 9 | 0.9 | 3.5 | 0.00 | 0.00 | 0.00 | 84 | 1014.4 |
| 20260504211501 | 47 | 360 | 0.0 | 1.7 | 0.00 | 0.00 | 0.00 | 80 | 1014.1 |
| 20260504210111 | 48 | 193 | 0.0 | 1.7 | 0.00 | 0.00 | 0.00 | 80 | 1013.9 |
| 20260504204502 | 50 | 193 | 0.0 | 2.6 | 0.00 | 0.00 | 0.00 | 78 | 1013.5 |
| 20260504203104 | 51 | 193 | 0.9 | 2.6 | 0.00 | 0.00 | 0.00 | 76 | 1013.2 |
| 20260504201502 | 54 | 219 | 0.9 | 2.6 | 0.00 | 0.00 | 0.00 | 73 | 1012.9 |
| 20260504200002 | 54 | 351 | 4.3 | 12.2 | 0.00 | 0.00 | 0.00 | 74 | 1012.5 |
| 20260504194611 | 54 | 1 | 7.8 | 13.0 | 0.00 | 0.00 | 0.00 | 76 | 1012.2 |
| 20260504193002 | 53 | 344 | 9.6 | 13.0 | 0.00 | 0.00 | 0.00 | 78 | 1012.2 |
| 20260504191601 | 52 | 350 | 4.3 | 8.7 | 0.00 | 0.00 | 0.00 | 78 | 1012.0 |
| 20260504190003 | 52 | 350 | 6.1 | 9.6 | 0.00 | 0.02 | 0.00 | 79 | 1011.8 |
| 20260504184506 | 51 | 358 | 6.1 | 8.7 | 0.00 | 0.02 | 0.00 | 79 | 1011.7 |
| 20260504183102 | 51 | 256 | 0.0 | 4.3 | 0.00 | 0.02 | 0.00 | 78 | 1011.5 |
| 20260504181501 | 51 | 250 | 0.9 | 7.0 | 0.00 | 0.02 | 0.00 | 78 | 1011.4 |
| 20260504180210 | 51 | 296 | 4.3 | 7.8 | 0.00 | 0.03 | 0.00 | 79 | 1011.3 |
| 20260504174502 | 52 | 315 | 3.5 | 7.0 | 0.00 | 0.03 | 0.00 | 75 | 1011.2 |
| 20260504173003 | 53 | 320 | 3.5 | 7.0 | 0.00 | 0.03 | 0.00 | 74 | 1011.1 |
| 20260504171602 | 54 | 321 | 2.6 | 4.3 | 0.00 | 0.03 | 0.00 | 73 | 1011.1 |
| 20260504140128 | 56 | 339 | 2.6 | 6.1 | 0.00 | 0.24 | 0.00 | 74 | 1010.5 |